User: anonymous   Login
Location: Unspecified
(0.0000°N, 0.0000°E)
Time: 23:06:24
(UTC+00:00)
Language:

W-SERIES 4 - Orbit

View from above orbital plane
View from above orbital plane
View from above satellite
View from above satellite

Ground track
Ground track

The orbit is defined by the following mean orbital elements,

1 64543U          26071.69546442 +.00000000 +00000-0 +61456-3 0 00006
2 64543  97.4466 184.8633 0406504  56.3071 307.6220 15.00542457    07
Epoch (UTC): 12 March 2026 16:41:28
Eccentricity: 0.0406504
inclination: 97.4466°
perigee height: 283 km
apogee height: 847 km
right ascension of ascending node: 184.8633°
argument of perigee: 56.3071°
revolutions per day: 15.00542457
mean anomaly at epoch: 307.6220°

The dashed part of the orbit path shows where the satellite is in the earth's shadow,  

DLR